Location: Coupvray
(48.8929°N, 2.7967°E)
Time: 21:06:53
(UTC+00:00)

Cosmos 1437 Rocket - Pass Details

Date: 14 July 2020
Orbit: 506 x 562 km, 81.2° (Epoch: 14 August)

Event Time Altitude Azimuth Distance (km) Brightness Sun altitude
Rises 02:05:36 0° 340° (NNW) 2,741 7.0 -13.7°
Reaches altitude 10° 02:07:55 10° 332° (NNW) 1,833 5.9 -13.5°
Maximum altitude 02:11:35 34° 267° (W) 910 3.6 -13.2°
Enters shadow 02:13:32 21° 217° (SW) 1,234 4.0 -13.0°
